ONEWEB-0130 (47276 NORAD) Tracking and Keplerian Element Data

This shows tracking and keplerian element data for the satellite.

Feedback or suggestion? Click here.




ElementValue
Catalog47276
NameONEWEB-0130
Epoch Orbit514
Epoch Day21.16668981
Epoch Year2021
RAAN27.8942
Inclination87.4492
Eccentricity0.0009711
Argument of Perigee129.4094
Mean Anonmoly19.7067
Mean Motion15.00530175
Decay Rate-0.01487594
L11 47276U 20100U 21021.16668981 -.01487594 00000-0 -12946+0 0 9991
L22 47276 87.4492 27.8942 0009711 129.4094 19.7067 15.00530175 5148

Live tracking and technical data element details for ONEWEB-0130 (NORAD 47276). ONEWEB-0130 can be tracked NOW for your location showing map with azimuth and elevation plus other details from your city location.

Track the satellite on the map from your city or location and see movement details for azimuth, elevation, latitude, longitude, range, height, and movement on the map or in text.







IsCatalogInMostPopularTable: catalog: 47276, numindb: 17
Update: records affected: 1



GetName: 47276 ONEWEB-0130

Hit Count: updated at: Sat, 23 Jan 2021 18:59:04 GMT